[[[{"header":{"parameterUnit":"kt","parameterCategory":2,"dx":1,"dy":1,"la1":30.253999710083008,"la2":30.299108505249023,"lo1":-89.0895004272461,"lo2":-89.04439544677734,"nx":28,"ny":28,"refTime":"2022-09-18T21:00:00:Z","depth":0,"parameterNumber":1,"parameterNumberName":"U-component_of_WINDS"},"data":[-2.9244,-2.9183,-2.9153,-2.9071,-2.903,-2.8969,-2.8938,-2.8894,-2.8852,-2.8777,-2.8728,-2.8693,-2.864,-2.8576,-2.8522,-2.8508,-2.8488,-2.8488,-2.8471,-2.8493,-2.8495,-2.8496,-2.8507,-2.8484,-2.8484,-2.8452,-2.8452,-2.8452,-2.9265,-2.9224,-2.9172,-2.91,-2.9055,-2.9036,-2.8978,-2.8942,-2.8888,-2.8836,-2.8786,-2.8717,-2.866,-2.8605,-2.8545,-2.8517,-2.8505,-2.8503,-2.8504,-2.8496,-2.8519,-2.8532,-2.8514,-2.8514,-2.8514,-2.8514,-2.8514,-2.8514,-2.9296,-2.9261,-2.92,-2.9142,-2.9098,-2.9051,-2.9012,-2.8968,-2.8916,-2.8848,-2.8823,-2.8761,-2.8704,-2.8616,-2.8579,-2.8531,-2.8528,-2.8516,-2.8513,-2.8511,-2.8513,-2.8564,-2.8519,-2.8519,-2.8519,-2.8519,-2.8519,0,-2.9309,-2.9286,-2.9233,-2.9171,-2.9127,-2.9077,-2.9025,-2.9,-2.8941,-2.8901,-2.8841,-2.8801,-2.8723,-2.8663,-2.86,-2.8563,-2.854,-2.8534,-2.8526,-2.8537,-2.8556,-2.8546,-2.8585,-2.8535,-2.8535,-2.8535,-2.8535,-2.8535,-2.9338,-2.93,-2.9221,-2.9188,-2.9152,-2.9099,-2.9062,-2.9012,-2.8974,-2.8904,-2.8876,-2.8815,-2.8763,-2.8672,-2.8622,-2.8563,-2.8551,-2.8536,-2.8542,-2.8555,-2.8551,-2.8554,-2.855,-2.8535,-2.8535,-2.8535,-2.8535,0,-2.9358,-2.9307,-2.9239,-2.9163,-2.9143,-2.9107,-2.9042,-2.9005,-2.8966,-2.891,-2.8894,-2.8832,-2.8774,-2.8725,-2.8649,-2.8625,-2.8566,-2.8555,-2.8586,-2.8581,-2.8563,-2.8565,-2.8509,-2.85,-2.8523,-2.8523,-2.8523,0,-2.9363,-2.9315,-2.9242,-2.9205,-2.915,-2.9101,-2.9048,-2.9009,-2.8957,-2.8912,-2.8877,-2.8835,-2.8779,-2.8731,-2.8695,-2.8638,-2.8624,-2.8602,-2.8593,-2.8605,-2.8608,-2.8584,-2.8585,-2.8574,-2.8575,-2.8575,-2.8575,0,-2.9398,-2.9302,-2.9241,-2.9211,-2.9126,-2.9099,-2.9062,-2.9003,-2.8966,-2.8911,-2.8887,-2.8827,-2.8794,-2.8748,-2.8703,-2.8709,-2.8632,-2.8631,-2.861,-2.8611,-2.8594,-2.8596,-2.8559,-2.8576,-2.8576,-2.8576,-2.8576,0,-2.9394,-2.9338,-2.9257,-2.9184,-2.9161,-2.9121,-2.9058,-2.9012,-2.8952,-2.8926,-2.8883,-2.8853,-2.8798,-2.8801,-2.8725,-2.8746,-2.8716,-2.869,-2.8687,-2.8679,-2.8683,-2.8669,-2.864,-2.8635,-2.8673,-2.8673,-2.8674,0,-2.9448,-2.9352,-2.9308,-2.9233,-2.9181,-2.9144,-2.9099,-2.9046,-2.9008,-2.896,-2.8918,-2.8864,-2.8855,-2.8831,-2.88,-2.8755,-2.8728,-2.8757,-2.8689,-2.8688,-2.8706,-2.8678,-2.8686,-2.8652,-2.8684,-2.8683,-2.8682,0,-2.9484,-2.9379,-2.9368,-2.9332,-2.9253,-2.921,-2.9158,-2.9092,-2.9062,-2.9006,-2.8962,-2.8883,-2.8874,-2.8834,-2.8803,-2.8773,-2.8745,-2.8767,-2.8764,-2.8765,-2.8684,-2.8692,-2.8686,-2.8731,-2.873,-2.8729,-2.8689,0,-2.9489,-2.9434,-2.9403,-2.9323,-2.9282,-2.9231,-2.9176,-2.914,-2.9114,-2.9074,-2.9008,-2.8951,-2.8884,-2.8864,-2.8838,-2.8785,-2.8786,-2.8776,-2.8775,-2.8757,-2.8743,-2.8737,-2.88,-2.88,-2.88,-2.88,0,0,-2.9554,-2.9473,-2.9426,-2.9372,-2.9334,-2.9295,-2.9246,-2.9204,-2.9121,-2.9096,-2.9095,-2.8976,-2.8929,-2.8854,-2.8844,-2.8817,-2.8803,-2.881,-2.8766,-2.8762,-2.8759,-2.8745,-2.8739,-2.8799,-2.8799,-2.8799,-2.8799,0,-2.9544,-2.9496,-2.9448,-2.9402,-2.9333,-2.9293,-2.9282,-2.9206,-2.9178,-2.9112,-2.908,-2.9034,-2.8939,-2.8894,-2.8859,-2.8818,-2.8797,-2.8802,-2.8798,-2.8765,-2.8761,-2.8758,-2.8744,-2.874,-2.8798,-2.8798,-2.8798,0,-2.9569,-2.9513,-2.9483,-2.9394,-2.9348,-2.9296,-2.9281,-2.9226,-2.9187,-2.9147,-2.9081,-2.9042,-2.8977,-2.8913,-2.8882,-2.8879,-2.8796,-2.8812,-2.8812,-2.8808,-2.8772,-2.8769,-2.8765,-2.8809,-2.8809,-2.8809,0,0,-2.9568,-2.9516,-2.944,-2.9387,-2.9361,-2.93,-2.9267,-2.9236,-2.9178,-2.9155,-2.9104,-2.9049,-2.8993,-2.8958,-2.8903,-2.884,-2.8822,-2.8816,-2.8815,-2.8815,-2.881,-2.8775,-2.8771,-2.881,-2.881,-2.881,0,0,-2.9567,-2.9477,-2.946,-2.9392,-2.9338,-2.9259,-2.923,-2.9207,-2.9152,-2.9151,-2.9098,-2.9081,-2.9019,-2.8982,-2.9002,-2.8901,-2.8901,-2.8895,-2.8928,-2.8926,-2.8926,-2.8936,-2.8978,0,0,0,0,0,-2.9528,-2.9488,-2.9474,-2.9454,-2.934,-2.9267,-2.9252,-2.9207,-2.9208,-2.9186,-2.9139,-2.9118,-2.8982,-2.8998,-2.8979,-2.8958,-2.8823,-2.882,-2.8818,-2.8845,-2.8844,-2.8843,0,0,0,0,0,0,-2.952,-2.9496,-2.9475,-2.9395,-2.9369,-2.9268,-2.926,-2.9246,-2.9209,-2.9206,-2.9128,-2.9116,-2.9076,-2.9004,-2.8988,-2.8969,-2.8983,-2.8822,-2.882,-2.8818,-2.8845,-2.8844,-2.8843,0,0,0,0,0,-2.9514,-2.9494,-2.9323,-2.9395,-2.9373,-2.9302,-2.9261,-2.9249,-2.922,-2.9147,-2.9135,-2.9189,-2.9077,-2.906,-2.8994,-2.8977,-2.8994,-2.8988,-2.8821,-2.8819,-2.8818,-2.8844,0,0,0,0,0,0,-2.9509,-2.9483,-2.9318,-2.9309,-2.9407,-2.9307,-2.929,-2.9253,-2.9163,-2.915,-2.9206,-2.9205,-2.9077,-2.9064,-2.9051,-2.8982,-2.9003,-2.8997,-2.8993,-2.8819,-2.8818,-2.8817,0,0,0,0,0,0,-2.9493,-2.9476,-2.9313,-2.9331,-2.9323,-2.9312,-2.9296,-2.9234,-2.9162,-2.9226,-2.9222,-2.9206,-2.9096,-2.9066,-2.9056,-2.896,-2.9009,-2.9004,-2.9,-2.8997,-2.8818,-2.8818,0,0,0,0,0,0,-2.9486,-2.9471,-2.9332,-2.9327,-2.9321,-2.9221,-2.9256,-2.9142,-2.9177,-2.9231,-2.9179,-2.918,-2.9099,-2.9088,-2.906,-2.8968,-2.8962,-2.9009,-2.9005,-2.9003,-2.9001,0,0,0,0,0,0,0,-2.9479,-2.9588,-2.9369,-2.9324,-2.9319,-2.923,-2.9228,-2.9226,-2.9177,-2.9178,-2.9178,-2.9179,-2.9041,-2.9035,-2.9029,-2.8975,0,0,-2.901,-2.9007,0,0,0,0,0,0,0,0,-2.9593,-2.9589,-2.9368,-2.9367,-2.9365,-2.923,-2.9228,-2.9226,-2.9177,-2.9178,-2.9178,-2.9179,-2.904,-2.9035,-2.903,0,0,0,0,0,0,0,0,0,0,0,0,0,0,0,-2.9368,-2.9367,0,-2.923,-2.9228,-2.9226,-2.9177,-2.9178,-2.9178,-2.9179,-2.9038,-2.9034,-2.903,0,0,0,0,0,0,0,0,0,0,0,0,0,0,0,0,0,0,0,0,0,0,0,0,0,0,0,0,0,0,0,0,0,0,0,0,0,0,0,0,0,0,0,0,0,0,0,0,0,0,0,0,0,0,0,0,0,0,0,0,0,0,0,0,0,0,0,0,0]}],[{"header":{"parameterUnit":"kt","parameterCategory":2,"dx":1,"dy":1,"la1":30.253999710083008,"la2":30.299108505249023,"lo1":-89.0895004272461,"lo2":-89.04439544677734,"nx":28,"ny":28,"refTime":"2022-09-18T21:00:00:Z","depth":0,"parameterNumber":2,"parameterNumberName":"V-component_of_WINDS"},"data":[-3.0808,-3.0878,-3.0936,-3.1043,-3.1113,-3.1197,-3.1245,-3.1314,-3.1384,-3.149,-3.1562,-3.1627,-3.1721,-3.1821,-3.1902,-3.193,-3.1962,-3.1944,-3.198,-3.2006,-3.2014,-3.2021,-3.2009,-3.1949,-3.1949,-3.1947,-3.1947,-3.1947,-3.0822,-3.0892,-3.0964,-3.1075,-3.1139,-3.1191,-3.1283,-3.1333,-3.1406,-3.1492,-3.1566,-3.1665,-3.175,-3.1852,-3.1945,-3.198,-3.2011,-3.2001,-3.2002,-3.2016,-3.2045,-3.2032,-3.1975,-3.1975,-3.1975,-3.1975,-3.1975,-3.1975,-3.0862,-3.0902,-3.1003,-3.1084,-3.1155,-3.1229,-3.1277,-3.1357,-3.143,-3.1534,-3.1589,-3.1673,-3.1771,-3.1913,-3.1974,-3.2042,-3.2065,-3.2073,-3.2076,-3.2077,-3.2072,-3.207,-3.206,-3.2061,-3.2061,-3.2062,-3.2062,0,-3.0912,-3.0958,-3.1032,-3.1124,-3.1186,-3.1263,-3.1343,-3.1374,-3.1494,-3.1549,-3.1634,-3.1693,-3.181,-3.1897,-3.1997,-3.2062,-3.2125,-3.2136,-3.2143,-3.2119,-3.2085,-3.2107,-3.2154,-3.2137,-3.2138,-3.2139,-3.2139,-3.2139,-3.096,-3.0998,-3.1133,-3.1177,-3.1236,-3.1306,-3.136,-3.1462,-3.1515,-3.163,-3.166,-3.1748,-3.1825,-3.1951,-3.2047,-3.2135,-3.2167,-3.2155,-3.2181,-3.2156,-3.2172,-3.217,-3.2176,-3.2149,-3.2148,-3.2147,-3.2146,0,-3.0982,-3.1079,-3.1157,-3.1288,-3.1322,-3.1356,-3.1469,-3.1512,-3.1586,-3.1657,-3.1679,-3.1797,-3.1879,-3.1978,-3.2091,-3.214,-3.2202,-3.2229,-3.2169,-3.2181,-3.2182,-3.2182,-3.2163,-3.2168,-3.2228,-3.2227,-3.2226,0,-3.1064,-3.111,-3.1252,-3.1292,-3.1347,-3.145,-3.1502,-3.1571,-3.1658,-3.1715,-3.1801,-3.1852,-3.1971,-3.2036,-3.2109,-3.2176,-3.2197,-3.224,-3.226,-3.2235,-3.223,-3.2268,-3.2272,-3.2298,-3.2298,-3.2298,-3.2298,0,-3.1092,-3.1221,-3.1287,-3.1332,-3.1477,-3.1505,-3.1566,-3.1665,-3.1717,-3.18,-3.1836,-3.1924,-3.1974,-3.2042,-3.2135,-3.215,-3.2219,-3.2258,-3.2264,-3.2261,-3.2277,-3.2275,-3.2231,-3.2298,-3.2298,-3.2298,-3.2298,0,-3.1174,-3.1256,-3.1336,-3.1459,-3.1489,-3.1532,-3.1628,-3.1687,-3.1785,-3.1834,-3.19,-3.1971,-3.2036,-3.2068,-3.2161,-3.2154,-3.2198,-3.2244,-3.2247,-3.2262,-3.2297,-3.2263,-3.2207,-3.2207,-3.2271,-3.2271,-3.2271,0,-3.1182,-3.1288,-3.1378,-3.1452,-3.1515,-3.161,-3.1659,-3.1743,-3.1813,-3.1878,-3.1955,-3.2028,-3.2072,-3.211,-3.2141,-3.2225,-3.2234,-3.2226,-3.2322,-3.2324,-3.2296,-3.2245,-3.2214,-3.2207,-3.2269,-3.2269,-3.2269,0,-3.12,-3.1376,-3.1383,-3.1441,-3.1568,-3.1621,-3.1677,-3.1772,-3.181,-3.1894,-3.1946,-3.2048,-3.2088,-3.2148,-3.2215,-3.2243,-3.2231,-3.2282,-3.2286,-3.2272,-3.2276,-3.2246,-3.2244,-3.227,-3.227,-3.2271,-3.2268,0,-3.1309,-3.1375,-3.1396,-3.1518,-3.1575,-3.1625,-3.1732,-3.1778,-3.1837,-3.1911,-3.1986,-3.2082,-3.2179,-3.2202,-3.2261,-3.2293,-3.2304,-3.2345,-3.2388,-3.2351,-3.2354,-3.2354,-3.2375,-3.2377,-3.2379,-3.238,0,0,-3.1294,-3.1391,-3.1489,-3.1548,-3.1603,-3.1702,-3.1747,-3.1811,-3.1938,-3.1974,-3.1998,-3.2157,-3.2233,-3.2315,-3.2311,-3.2349,-3.2366,-3.2375,-3.2367,-3.2365,-3.2363,-3.2363,-3.2362,-3.2383,-3.2383,-3.2384,-3.2384,0,-3.1358,-3.1432,-3.1475,-3.1547,-3.1656,-3.1732,-3.1741,-3.1868,-3.1917,-3.1991,-3.2074,-3.2131,-3.2255,-3.2327,-3.2379,-3.2366,-3.2427,-3.2387,-3.2346,-3.2378,-3.2374,-3.2371,-3.237,-3.2368,-3.2388,-3.2388,-3.2388,0,-3.1399,-3.1491,-3.1523,-3.165,-3.1723,-3.1785,-3.1855,-3.1917,-3.1965,-3.2072,-3.2144,-3.2212,-3.2316,-3.2377,-3.2409,-3.2432,-3.2476,-3.248,-3.2473,-3.248,-3.2517,-3.2512,-3.2508,-3.2568,-3.2568,-3.2568,0,0,-3.1439,-3.15,-3.1633,-3.1672,-3.1712,-3.1826,-3.1869,-3.1935,-3.2026,-3.2062,-3.2151,-3.2237,-3.2311,-3.2357,-3.2432,-3.2483,-3.2515,-3.2498,-3.2489,-3.2482,-3.2484,-3.252,-3.2515,-3.2569,-3.2569,-3.2569,0,0,-3.1459,-3.1615,-3.1659,-3.1718,-3.1802,-3.1936,-3.1956,-3.2014,-3.2092,-3.2099,-3.2212,-3.224,-3.2299,-3.2363,-3.2359,-3.245,-3.2489,-3.2492,-3.2407,-3.2398,-3.239,-3.2375,-3.2447,0,0,0,0,0,-3.158,-3.1596,-3.1634,-3.166,-3.1822,-3.1914,-3.1935,-3.2029,-3.2056,-3.2069,-3.2153,-3.2214,-3.2385,-3.2385,-3.2409,-3.2413,-3.2578,-3.2577,-3.2575,-3.2478,-3.2467,-3.2458,0,0,0,0,0,0,-3.1591,-3.1623,-3.1634,-3.1767,-3.1805,-3.1914,-3.198,-3.2006,-3.2057,-3.2067,-3.2196,-3.2218,-3.2301,-3.2379,-3.2399,-3.2401,-3.244,-3.2578,-3.2576,-3.2575,-3.2474,-3.2466,-3.2458,0,0,0,0,0,-3.16,-3.1626,-3.186,-3.1768,-3.18,-3.1929,-3.198,-3.2002,-3.2043,-3.2173,-3.2198,-3.211,-3.2298,-3.2322,-3.2391,-3.2389,-3.2427,-3.2434,-3.2577,-3.2576,-3.2575,-3.247,0,0,0,0,0,0,-3.1607,-3.1647,-3.1869,-3.1882,-3.1769,-3.1925,-3.1952,-3.1999,-3.2148,-3.2172,-3.2093,-3.2099,-3.2296,-3.2315,-3.2333,-3.238,-3.2416,-3.2423,-3.2428,-3.2576,-3.2575,-3.2574,0,0,0,0,0,0,-3.1634,-3.1658,-3.1876,-3.1873,-3.1887,-3.192,-3.1945,-3.2017,-3.2149,-3.206,-3.207,-3.2094,-3.227,-3.231,-3.2325,-3.2434,-3.2407,-3.2414,-3.2419,-3.2422,-3.2575,-3.2574,0,0,0,0,0,0,-3.1646,-3.1666,-3.187,-3.188,-3.1893,-3.205,-3.1986,-3.2147,-3.2145,-3.2051,-3.2148,-3.2149,-3.2263,-3.228,-3.2318,-3.2421,-3.2431,-3.2407,-3.2412,-3.2416,-3.2418,0,0,0,0,0,0,0,-3.1656,-3.1497,-3.1789,-3.1887,-3.1898,-3.2006,-3.201,-3.2014,-3.2145,-3.2146,-3.2147,-3.2148,-3.2367,-3.2375,-3.2382,-3.2411,0,0,-3.2407,-3.241,0,0,0,0,0,0,0,0,-3.1491,-3.1496,-3.179,-3.1792,-3.1795,-3.2007,-3.201,-3.2013,-3.2145,-3.2146,-3.2147,-3.2148,-3.2369,-3.2375,-3.2382,0,0,0,0,0,0,0,0,0,0,0,0,0,0,0,-3.179,-3.1792,0,-3.2007,-3.201,-3.2012,-3.2146,-3.2146,-3.2147,-3.2148,-3.2371,-3.2376,-3.2381,0,0,0,0,0,0,0,0,0,0,0,0,0,0,0,0,0,0,0,0,0,0,0,0,0,0,0,0,0,0,0,0,0,0,0,0,0,0,0,0,0,0,0,0,0,0,0,0,0,0,0,0,0,0,0,0,0,0,0,0,0,0,0,0,0,0,0,0,0]}]]]